Tracking 25964 objects as of 11-Aug-2022
HD Live streaming from Space Station
objects crossing your sky now

ONEWEB-0093

Track ONEWEB-0093 now!
10-day predictions
ONEWEB-0093 is classified as:


NORAD ID: 45444
Int'l Code: 2020-020W
Perigee: 1,223.1 km
Apogee: 1,226.6 km
Inclination: 87.9 °
Period: 109.8 minutes
Semi major axis: 7595 km
RCS: Unknown
Launch date: March 21, 2020
Source: United Kingdom (UK)
Launch site: TYURATAM MISSILE AND SPACE COMPLEX (TTMTR)
aabbcc
Your satellite tracking list
Your tracking list is empty




NASA's NSSDC Master Catalog

Two Line Element Set (TLE):
1 45444U 20020W   22223.15711810 -.00000320  00000-0 -93983-3 0  9992
2 45444  87.8855 300.5727 0002258  95.8489 264.2896 13.11413476118398
Source of the keplerian elements: AFSPC